Weather History for Corinth, MS

Change the Weather History Date:

Thursday, October 17, 2013

  Actual Average Record
Temperature  
Mean Temperature 57 °F -  
Max Temperature 66 °F 73 °F 91 °F (1953)
Min Temperature 48 °F 47 °F 29 °F (1987)
Degree Days  
Heating Degree Days 8    
Growing Degree Days 7 (Base 50)    
Moisture  
Dew Point 53 °F    
Average Humidity 85    
Maximum Humidity 100    
Minimum Humidity 56    
Precipitation  
Precipitation 0.03 in - - ()
Sea Level Pressure  
Sea Level Pressure 29.98 in    
Wind  
Wind Speed 4 mph (NW)    
Max Wind Speed 9 mph    
Max Gust Speed -    
Visibility 8 miles    
Events Fog , Rain    
Averages and records for this station are not official NWS values.
T = Trace of Precipitation, MM = Missing Value Source: NWS Daily Summary

Daily Weather History Graph

Daily Weather History Graph

Search for Another Location

Airport:

Trip Planner

Search our weather history database for the weather conditions in past years. The results will help you decide how hot, cold, wet, or windy it might be!

Date:

Astronomy

Oct. 17, 2013 Rise Set
Actual Time 7:02 AM CDT 6:16 PM CDT
Civil Twilight 6:36 AM CDT 6:42 PM CDT
Nautical Twilight 6:07 AM CDT 7:11 PM CDT
Astronomical Twilight 5:37 AM CDT 7:40 PM CDT
Moon 5:29 PM CDT (10/17) 5:36 AM CDT (10/17)
Length of Visible Light 12h 05m
Length of Day
11h 14m
Waxing Gibbous, 98% of the Moon is Illuminated
Oct 17
Waxing Gibbous
Oct 18
Full
Oct 26
Last Quarter
Nov 3
New
Nov 9
First Quarter

Hourly Weather History & Observations

Time (CDT) Temp. Dew Point Humidity Pressure Visibility Wind Dir Wind Speed Gust Speed Precip Events Conditions
12:10 AM 59.0 °F 57.2 °F 94% 29.95 in 10.0 mi WNW 3.5 mph - N/A   Overcast
12:30 AM 59.0 °F 57.2 °F 94% 29.95 in 10.0 mi NNW 3.5 mph - N/A   Overcast
12:50 AM 59.0 °F 57.2 °F 94% 29.95 in 10.0 mi NNW 4.6 mph - N/A   Overcast
1:10 AM 59.0 °F 57.2 °F 94% 29.95 in 10.0 mi NW 4.6 mph - N/A   Overcast
1:30 AM 59.0 °F 57.2 °F 94% 29.96 in 5.0 mi NW 4.6 mph - N/A Rain Light Rain
1:50 AM 59.0 °F 57.2 °F 94% 29.95 in 3.0 mi NW 4.6 mph - 0.01 in Rain Light Rain
2:10 AM 59.0 °F 57.2 °F 94% 29.95 in 5.0 mi NW 4.6 mph - N/A Rain Light Rain
2:30 AM 59.0 °F 57.2 °F 94% 29.94 in 10.0 mi NNW 4.6 mph - N/A   Overcast
2:50 AM 59.0 °F 57.2 °F 94% 29.94 in 10.0 mi NW 4.6 mph - N/A Rain Light Rain
3:10 AM 59.0 °F 57.2 °F 94% 29.93 in 10.0 mi NW 4.6 mph - N/A   Overcast
3:30 AM 59.0 °F 55.4 °F 88% 29.93 in 10.0 mi NW 3.5 mph - N/A   Overcast
3:50 AM 59.0 °F 55.4 °F 88% 29.94 in 10.0 mi NW 6.9 mph - N/A   Overcast
4:10 AM 59.0 °F 55.4 °F 88% 29.94 in 9.0 mi NW 6.9 mph - N/A   Overcast
4:30 AM 57.2 °F 55.4 °F 94% 29.94 in 5.0 mi NW 5.8 mph - N/A Rain Light Rain
4:50 AM 57.2 °F 55.4 °F 94% 29.95 in 1.8 mi NW 6.9 mph - 0.01 in Rain Light Rain
5:10 AM 57.2 °F 55.4 °F 94% 29.95 in 2.5 mi NW 9.2 mph - N/A Rain Light Rain
5:30 AM 57.2 °F 55.4 °F 94% 29.95 in 3.0 mi NW 4.6 mph - 0.01 in Rain Light Rain
5:50 AM 57.2 °F 55.4 °F 94% 29.95 in 3.0 mi NW 5.8 mph - 0.01 in Rain Light Rain
6:10 AM 57.2 °F 55.4 °F 94% 29.96 in 5.0 mi NW 8.1 mph - N/A Rain Light Rain
6:30 AM 57.2 °F 53.6 °F 88% 29.96 in 5.0 mi NW 6.9 mph - N/A   Overcast
6:50 AM 57.2 °F 55.4 °F 94% 29.96 in 10.0 mi Calm Calm - N/A   Overcast
7:10 AM 57.2 °F 55.4 °F 94% 29.95 in 10.0 mi Calm Calm - N/A   Overcast
7:30 AM 57.2 °F 55.4 °F 94% 29.97 in 10.0 mi NW 9.2 mph - N/A   Overcast
7:50 AM 57.2 °F 55.4 °F 94% 29.98 in 10.0 mi NW 8.1 mph - N/A   Overcast
8:10 AM 57.2 °F 53.6 °F 88% 29.99 in 10.0 mi NNW 4.6 mph - N/A   Overcast
8:30 AM 57.2 °F 53.6 °F 88% 29.99 in 3.0 mi NW 3.5 mph - N/A   Overcast
8:50 AM 57.2 °F 53.6 °F 88% 30.00 in 3.0 mi NNW 6.9 mph - N/A   Overcast
9:10 AM 57.2 °F 53.6 °F 88% 30.01 in 10.0 mi NNW 8.1 mph - N/A   Overcast
9:30 AM 57.2 °F 53.6 °F 88% 30.02 in 9.0 mi NW 8.1 mph - N/A   Overcast
9:50 AM 57.2 °F 53.6 °F 88% 30.02 in 5.0 mi NNW 6.9 mph - N/A   Overcast
10:10 AM 57.2 °F 53.6 °F 88% 30.02 in 10.0 mi North 5.8 mph - N/A   Overcast
10:30 AM 57.2 °F 53.6 °F 88% 30.02 in 10.0 mi North 5.8 mph - N/A   Overcast
10:50 AM 57.2 °F 53.6 °F 88% 30.03 in 10.0 mi North 6.9 mph - N/A   Overcast
11:10 AM 57.2 °F 53.6 °F 88% 30.03 in 10.0 mi NNE 4.6 mph - N/A   Overcast
11:30 AM 59.0 °F 53.6 °F 82% 30.03 in 10.0 mi NW 5.8 mph - N/A   Overcast
11:50 AM 59.0 °F 53.6 °F 82% 30.02 in 10.0 mi North 8.1 mph - N/A   Overcast
12:10 PM 59.0 °F 53.6 °F 82% 30.02 in 10.0 mi NW 5.8 mph - N/A   Overcast
12:30 PM 59.0 °F 53.6 °F 82% 30.01 in 10.0 mi NNW 4.6 mph - N/A   Overcast
12:50 PM 59.0 °F 53.6 °F 82% 30.01 in 10.0 mi West 4.6 mph - N/A   Overcast
1:10 PM 59.0 °F 53.6 °F 82% 30.00 in 10.0 mi NW 4.6 mph - N/A   Overcast
1:30 PM 62.6 °F 55.4 °F 77% 30.00 in 10.0 mi NW 3.5 mph - N/A   Overcast
1:50 PM 62.6 °F 51.8 °F 68% 29.99 in 10.0 mi North 3.5 mph - N/A   Overcast
2:10 PM 64.4 °F 53.6 °F 68% 29.98 in 10.0 mi North 3.5 mph - N/A   Mostly Cloudy
2:30 PM 62.6 °F 51.8 °F 68% 29.98 in 10.0 mi Calm Calm - N/A   Mostly Cloudy
2:50 PM 64.4 °F 51.8 °F 64% 29.98 in 10.0 mi NNW 4.6 mph - N/A   Mostly Cloudy
3:10 PM 64.4 °F 50.0 °F 59% 29.97 in 10.0 mi NNW 4.6 mph - N/A   Scattered Clouds
3:30 PM 66.2 °F 51.8 °F 60% 29.97 in 10.0 mi NNE 4.6 mph - N/A   Mostly Cloudy
3:50 PM 64.4 °F 50.0 °F 59% 29.97 in 10.0 mi North 3.5 mph - N/A   Mostly Cloudy
4:10 PM 64.4 °F 50.0 °F 59% 29.97 in 10.0 mi Calm Calm - N/A   Partly Cloudy
4:30 PM 64.4 °F 50.0 °F 59% 29.97 in 10.0 mi WNW 4.6 mph - N/A   Partly Cloudy
4:50 PM 66.2 °F 50.0 °F 56% 29.97 in 10.0 mi West 3.5 mph - N/A   Mostly Cloudy
5:10 PM 66.2 °F 50.0 °F 56% 29.97 in 10.0 mi WNW 3.5 mph - N/A   Overcast
5:30 PM 64.4 °F 50.0 °F 59% 29.97 in 10.0 mi NNW 3.5 mph - N/A   Scattered Clouds
5:50 PM 62.6 °F 50.0 °F 63% 29.98 in 10.0 mi NNW 3.5 mph - N/A   Mostly Cloudy
6:10 PM 60.8 °F 51.8 °F 72% 29.99 in 10.0 mi Calm Calm - N/A   Mostly Cloudy
6:30 PM 59.0 °F 53.6 °F 82% 29.99 in 10.0 mi Calm Calm - N/A   Overcast
6:50 PM 57.2 °F 53.6 °F 88% 29.99 in 10.0 mi Calm Calm - N/A   Overcast
7:10 PM 57.2 °F 53.6 °F 88% 30.00 in 10.0 mi Calm Calm - N/A   Scattered Clouds
7:30 PM 57.2 °F 53.6 °F 88% 30.00 in 10.0 mi Calm Calm - N/A   Mostly Cloudy
7:50 PM 57.2 °F 53.6 °F 88% 30.01 in 10.0 mi Calm Calm - N/A   Overcast
8:10 PM 55.4 °F 53.6 °F 94% 30.01 in 10.0 mi Calm Calm - N/A   Mostly Cloudy
8:30 PM 55.4 °F 51.8 °F 88% 30.01 in 10.0 mi Calm Calm - N/A   Partly Cloudy
8:50 PM 53.6 °F 51.8 °F 94% 30.02 in 8.0 mi Calm Calm - N/A   Clear
9:10 PM 53.6 °F 51.8 °F 94% 30.02 in 10.0 mi Calm Calm - N/A   Clear
9:30 PM 53.6 °F 50.0 °F 88% 30.02 in 4.0 mi Calm Calm - N/A   Clear
9:50 PM 51.8 °F 50.0 °F 94% 30.02 in 0.2 mi Calm Calm - N/A Fog Fog
10:10 PM 51.8 °F 50.0 °F 94% 30.02 in 1.2 mi Calm Calm - N/A   Clear
10:30 PM 50.0 °F 50.0 °F 100% 30.03 in 0.5 mi NW 4.6 mph - N/A Fog Fog
10:50 PM 50.0 °F 48.2 °F 94% 30.03 in 0.5 mi Calm Calm - N/A Fog Fog
11:10 PM 50.0 °F 48.2 °F 94% 30.02 in 0.5 mi NW 3.5 mph - N/A Fog Fog
11:30 PM 48.2 °F 48.2 °F 100% 30.02 in 0.2 mi Calm Calm - N/A Fog Fog
11:50 PM 48.2 °F 48.2 °F 100% 30.02 in 0.2 mi Calm Calm - N/A Fog Fog